[[{"header":{"parameterUnit":"m.s-1","parameterCategory":1,"la1":30.2991,"la2":30.254,"lo1":-89.0895,"lo2":-89.0444,"dy":0.0017,"dx":0.0017,"nx":28,"ny":28,"refTime":"2025-12-28T03:00:00:Z","depth":0,"parameterNumber":2,"parameterNumberName":"U-component_of_WINDS"},"data":[0,0,0,0,0,0,0,0,0,0,0,0,0,0,0,0,0,0,0,0,0,0,0,0,0,0,0,0,0,0,0,0,0,0,0,0,0,0,0,0,0,0,0,0,0,0,0,0,0,0,0,0,0,0,0,0,0,0,-1.0766,-1.0765,0,-1.0668,-1.0667,-1.0666,-1.0578,-1.0577,-1.0576,-1.0575,-1.0476,-1.0475,-1.0473,0,0,0,0,0,0,0,0,0,0,0,0,0,-1.0878,-1.0876,-1.0766,-1.0765,-1.0763,-1.0669,-1.0667,-1.0666,-1.0579,-1.0577,-1.0576,-1.0575,-1.0477,-1.0475,-1.0473,0,0,0,0,0,0,0,0,0,0,0,0,0,-1.081,-1.0876,-1.0766,-1.0708,-1.0702,-1.0669,-1.0667,-1.0666,-1.0579,-1.0577,-1.0576,-1.0574,-1.0477,-1.0475,-1.0472,-1.0489,0,0,-1.0465,-1.0464,0,0,0,0,0,0,0,0,-1.0814,-1.0806,-1.0718,-1.0712,-1.0705,-1.0634,-1.067,-1.0606,-1.0579,-1.0626,-1.0575,-1.0573,-1.053,-1.0523,-1.0508,-1.0484,-1.048,-1.0465,-1.0463,-1.0462,-1.0461,0,0,0,0,0,0,0,-1.0819,-1.0809,-1.0727,-1.0717,-1.0709,-1.0688,-1.0676,-1.0658,-1.0588,-1.0622,-1.0615,-1.0605,-1.0526,-1.0511,-1.0505,-1.0478,-1.0465,-1.0462,-1.0461,-1.046,-1.0463,-1.0465,0,0,0,0,0,0,-1.0832,-1.0814,-1.073,-1.0724,-1.0757,-1.0687,-1.0674,-1.0658,-1.0588,-1.0576,-1.0606,-1.0601,-1.0516,-1.0508,-1.0501,-1.0516,-1.0462,-1.046,-1.0458,-1.0462,-1.0464,-1.0465,0,0,0,0,0,0,-1.0835,-1.0825,-1.0734,-1.0767,-1.0754,-1.0687,-1.067,-1.0657,-1.0642,-1.0576,-1.0563,-1.0603,-1.0514,-1.0505,-1.0493,-1.0511,-1.0459,-1.0456,-1.046,-1.0462,-1.0464,-1.0545,0,0,0,0,0,0,-1.0838,-1.0827,-1.0832,-1.0768,-1.0753,-1.0727,-1.0671,-1.0657,-1.0638,-1.063,-1.057,-1.0558,-1.0512,-1.0497,-1.049,-1.0507,-1.0454,-1.0458,-1.0461,-1.0464,-1.054,-1.055,-1.0558,0,0,0,0,0,-1.0843,-1.0858,-1.0832,-1.0823,-1.0757,-1.0728,-1.0719,-1.0666,-1.064,-1.0644,-1.0602,-1.056,-1.0511,-1.0496,-1.0488,-1.0504,-1.0456,-1.046,-1.0463,-1.0537,-1.0548,-1.0558,0,0,0,0,0,0,-1.0926,-1.0849,-1.0819,-1.0815,-1.0779,-1.0713,-1.0717,-1.068,-1.065,-1.0644,-1.0579,-1.0567,-1.0562,-1.0532,-1.0517,-1.0517,-1.0478,-1.048,-1.0536,-1.0547,-1.0555,-1.0562,-1.0452,0,0,0,0,0,-1.0944,-1.0926,-1.086,-1.0862,-1.0846,-1.0785,-1.077,-1.0732,-1.0692,-1.0677,-1.0633,-1.0597,-1.0573,-1.0558,-1.0532,-1.0536,-1.0522,-1.0543,-1.0552,-1.056,-1.0562,-1.0563,-1.0571,-1.0477,-1.0477,-1.0477,0,0,-1.098,-1.0936,-1.0929,-1.0878,-1.0845,-1.0829,-1.0773,-1.0757,-1.0745,-1.0674,-1.066,-1.0628,-1.0582,-1.0578,-1.0574,-1.0553,-1.0585,-1.0564,-1.0571,-1.0569,-1.0567,-1.0576,-1.0584,-1.0479,-1.0479,-1.0479,0,0,-1.1039,-1.1003,-1.1002,-1.0971,-1.0922,-1.0882,-1.0882,-1.0823,-1.0798,-1.0783,-1.073,-1.0714,-1.0674,-1.0644,-1.0624,-1.0673,-1.0633,-1.0666,-1.0712,-1.0713,-1.0721,-1.0727,-1.0745,-1.0752,-1.0669,-1.0669,-1.0669,0,-1.109,-1.1063,-1.1006,-1.0994,-1.0973,-1.0909,-1.0908,-1.088,-1.0827,-1.0814,-1.0791,-1.074,-1.0705,-1.0694,-1.0706,-1.0691,-1.0689,-1.0672,-1.0724,-1.073,-1.0735,-1.0751,-1.0758,-1.0674,-1.0673,-1.0673,-1.0672,0,-1.1129,-1.1111,-1.1116,-1.1065,-1.1045,-1.1039,-1.0982,-1.0968,-1.0933,-1.0896,-1.0881,-1.0837,-1.0802,-1.0796,-1.0761,-1.078,-1.0769,-1.0736,-1.0696,-1.0749,-1.0763,-1.0769,-1.068,-1.0678,-1.0677,-1.0676,0,0,-1.1235,-1.1154,-1.1157,-1.1134,-1.1077,-1.1062,-1.1053,-1.1018,-1.1009,-1.0974,-1.0965,-1.0934,-1.0904,-1.0881,-1.0842,-1.0843,-1.0885,-1.081,-1.0808,-1.0825,-1.0904,-1.0929,-1.0937,-1.0859,-1.086,-1.0861,-1.0908,0,-1.1284,-1.1263,-1.1213,-1.1208,-1.1192,-1.1131,-1.1124,-1.1088,-1.1054,-1.1035,-1.0996,-1.0975,-1.0937,-1.0922,-1.0921,-1.088,-1.09,-1.0876,-1.085,-1.085,-1.0863,-1.0944,-1.0969,-1.1016,-1.0913,-1.0914,-1.0914,0,-1.1337,-1.1307,-1.1301,-1.1245,-1.1236,-1.123,-1.1195,-1.1178,-1.1137,-1.1112,-1.1087,-1.1044,-1.1032,-1.0996,-1.0979,-1.0964,-1.0951,-1.0929,-1.093,-1.0925,-1.0885,-1.0941,-1.1029,-1.1036,-1.0922,-1.0922,-1.0921,0,-1.1416,-1.1373,-1.1364,-1.1346,-1.1281,-1.1279,-1.1252,-1.1209,-1.1192,-1.1162,-1.115,-1.1119,-1.1102,-1.1079,-1.1029,-1.1007,-1.1018,-1.0977,-1.0997,-1.0998,-1.1001,-1.1001,-1.1088,-1.0994,-1.0994,-1.0994,-1.0993,0,-1.1475,-1.1474,-1.1399,-1.1393,-1.139,-1.1333,-1.1332,-1.1299,-1.1262,-1.125,-1.1196,-1.1186,-1.1121,-1.1104,-1.1065,-1.1057,-1.105,-1.1029,-1.1019,-1.1034,-1.1036,-1.1023,-1.1019,-1.0995,-1.0995,-1.0995,-1.0994,0,-1.1561,-1.1511,-1.1497,-1.1438,-1.1423,-1.1423,-1.1372,-1.1365,-1.1328,-1.1313,-1.1306,-1.1248,-1.1224,-1.1173,-1.1136,-1.111,-1.1111,-1.1093,-1.1125,-1.1118,-1.1141,-1.114,-1.1222,-1.123,-1.1132,-1.1133,-1.1134,0,-1.1602,-1.16,-1.154,-1.1528,-1.1503,-1.1484,-1.1466,-1.141,-1.1394,-1.1348,-1.1347,-1.1319,-1.1294,-1.126,-1.1214,-1.1186,-1.1166,-1.1197,-1.1161,-1.1177,-1.1166,-1.1167,-1.1167,-1.1205,-1.1206,-1.1207,-1.1208,0,-1.168,-1.1655,-1.1632,-1.16,-1.1581,-1.1553,-1.1522,-1.1516,-1.1452,-1.1437,-1.1413,-1.1394,-1.1356,-1.133,-1.1295,-1.1267,-1.1228,-1.122,-1.1223,-1.1238,-1.1257,-1.1247,-1.1146,-1.1218,-1.1217,-1.1216,-1.1216,-1.1216,-1.1744,-1.174,-1.1697,-1.1673,-1.1644,-1.1617,-1.1608,-1.157,-1.1548,-1.1513,-1.1482,-1.1461,-1.1421,-1.137,-1.1345,-1.1328,-1.1308,-1.1312,-1.1313,-1.1315,-1.1322,-1.126,-1.1321,-1.1321,-1.1321,-1.132,-1.132,0,-1.1819,-1.1789,-1.1768,-1.1727,-1.1708,-1.1673,-1.1638,-1.1625,-1.1606,-1.1573,-1.1549,-1.1522,-1.1496,-1.145,-1.142,-1.1416,-1.1397,-1.141,-1.1409,-1.1404,-1.1341,-1.1341,-1.1426,-1.1426,-1.1426,-1.1426,-1.1426,-1.1426,-1.1856,-1.1846,-1.1817,-1.1793,-1.1763,-1.1742,-1.1725,-1.17,-1.1673,-1.1645,-1.1623,-1.1593,-1.1554,-1.1522,-1.1497,-1.1484,-1.1475,-1.1494,-1.1476,-1.1418,-1.1408,-1.1398,-1.1398,-1.1493,-1.1493,-1.1539,-1.154,-1.154]},{"header":{"parameterUnit":"m.s-1","parameterCategory":1,"la1":30.2991,"la2":30.254,"lo1":-89.0895,"lo2":-89.0444,"dy":0.0017,"dx":0.0017,"nx":28,"ny":28,"refTime":"2025-12-28T03:00:00:Z","depth":0,"parameterNumber":3,"parameterNumberName":"V-component_of_WINDS"},"data":[0,0,0,0,0,0,0,0,0,0,0,0,0,0,0,0,0,0,0,0,0,0,0,0,0,0,0,0,0,0,0,0,0,0,0,0,0,0,0,0,0,0,0,0,0,0,0,0,0,0,0,0,0,0,0,0,0,0,1.5232,1.5231,0,1.5127,1.5126,1.5124,1.5086,1.5086,1.5087,1.5087,1.4976,1.4973,1.4969,0,0,0,0,0,0,0,0,0,0,0,0,0,1.5399,1.5396,1.5232,1.5231,1.523,1.5127,1.5126,1.5124,1.5086,1.5086,1.5087,1.5087,1.4977,1.4973,1.4969,0,0,0,0,0,0,0,0,0,0,0,0,0,1.5313,1.5395,1.5233,1.5198,1.5194,1.5127,1.5125,1.5124,1.5086,1.5086,1.5087,1.5087,1.4978,1.4973,1.4969,1.4927,0,0,1.4953,1.4951,0,0,0,0,0,0,0,0,1.5318,1.5307,1.5205,1.5201,1.5196,1.512,1.5143,1.5058,1.5086,1.5127,1.5087,1.5088,1.5023,1.5015,1.4994,1.4922,1.4917,1.4953,1.495,1.4948,1.4947,0,0,0,0,0,0,0,1.5324,1.5311,1.519,1.5203,1.5198,1.5187,1.5176,1.5127,1.5073,1.5123,1.512,1.5108,1.5021,1.4998,1.4991,1.4916,1.4953,1.4949,1.4946,1.4944,1.4806,1.4805,0,0,0,0,0,0,1.5336,1.5316,1.5194,1.5187,1.526,1.5184,1.5171,1.5144,1.5074,1.5063,1.5108,1.5107,1.5007,1.4996,1.4987,1.4934,1.4948,1.4943,1.4941,1.4806,1.4806,1.4805,0,0,0,0,0,0,1.534,1.5325,1.5198,1.5251,1.5234,1.5181,1.515,1.5141,1.5119,1.5062,1.5052,1.5095,1.5007,1.4994,1.4943,1.493,1.4941,1.4937,1.4807,1.4806,1.4805,1.4829,0,0,0,0,0,0,1.5345,1.5327,1.5311,1.5251,1.5231,1.5157,1.5149,1.5139,1.5111,1.5108,1.5047,1.5038,1.5006,1.495,1.4938,1.4923,1.4933,1.4808,1.4807,1.4805,1.4829,1.4829,1.4828,0,0,0,0,0,1.5351,1.5321,1.531,1.5296,1.5211,1.5156,1.5145,1.511,1.511,1.5093,1.5057,1.504,1.4933,1.4945,1.4931,1.4915,1.4809,1.4807,1.4806,1.4829,1.4829,1.4828,0,0,0,0,0,0,1.5379,1.5312,1.53,1.525,1.5209,1.515,1.5127,1.511,1.5067,1.5067,1.5024,1.5011,1.4964,1.4934,1.4949,1.4871,1.487,1.4865,1.4893,1.4892,1.4892,1.49,1.4929,0,0,0,0,0,1.538,1.5342,1.5285,1.5247,1.5227,1.5181,1.5156,1.5133,1.5088,1.507,1.503,1.4987,1.4944,1.4916,1.4873,1.4824,1.4811,1.4806,1.4806,1.4806,1.4803,1.4776,1.4773,1.48,1.48,1.48,0,0,1.5381,1.534,1.5318,1.5252,1.5217,1.5178,1.5167,1.5126,1.5096,1.5063,1.5014,1.4983,1.4932,1.4882,1.4858,1.4856,1.4792,1.4804,1.4805,1.4801,1.4774,1.4771,1.4769,1.4798,1.4799,1.4799,0,0,1.5362,1.5327,1.5292,1.5258,1.5207,1.5177,1.5168,1.5111,1.509,1.5039,1.5015,1.4979,1.4905,1.487,1.4843,1.4813,1.4795,1.48,1.4799,1.4773,1.4771,1.4768,1.4758,1.4755,1.4797,1.4797,1.4797,0,1.537,1.5311,1.5276,1.5237,1.5208,1.5179,1.5142,1.5111,1.5048,1.5028,1.5027,1.4935,1.4898,1.4841,1.4834,1.4812,1.4801,1.4806,1.4774,1.4771,1.4769,1.4759,1.4755,1.4798,1.4797,1.4797,1.4797,0,1.5323,1.5282,1.526,1.5201,1.517,1.5133,1.5092,1.5064,1.5044,1.5014,1.4963,1.4919,1.4867,1.4851,1.483,1.4791,1.4791,1.4782,1.478,1.4768,1.4758,1.4754,1.4799,1.4799,1.4798,1.4798,0,0,1.5318,1.5242,1.5235,1.5208,1.515,1.5118,1.5079,1.5029,1.5007,1.4965,1.4931,1.487,1.4863,1.4831,1.4806,1.4784,1.4764,1.4778,1.4776,1.4777,1.4718,1.4725,1.4721,1.4752,1.4751,1.4751,1.4723,0,1.5293,1.5224,1.5191,1.5136,1.5099,1.507,1.5037,1.4997,1.4968,1.4932,1.4899,1.4857,1.4849,1.4831,1.4807,1.4771,1.4752,1.4773,1.472,1.4719,1.4734,1.4716,1.4723,1.4699,1.4718,1.4718,1.4717,0,1.5253,1.5213,1.5155,1.5102,1.5085,1.5056,1.5008,1.4974,1.4928,1.4909,1.4875,1.4851,1.4809,1.481,1.4752,1.4767,1.4744,1.4723,1.4722,1.4715,1.4717,1.4709,1.469,1.4687,1.471,1.4711,1.4711,0,1.5257,1.5188,1.5144,1.5122,1.506,1.504,1.5012,1.4968,1.494,1.4899,1.488,1.4834,1.4808,1.4773,1.4737,1.4741,1.4683,1.468,1.4665,1.4666,1.4654,1.4655,1.4631,1.4639,1.4639,1.4639,1.4639,0,1.5232,1.5198,1.5145,1.5119,1.5079,1.5042,1.5004,1.4974,1.4935,1.4902,1.4874,1.4843,1.4798,1.4761,1.4733,1.4689,1.4678,1.4661,1.4654,1.4663,1.4666,1.4647,1.4648,1.4638,1.4638,1.4638,1.4638,0,1.523,1.5193,1.5144,1.5089,1.5075,1.5048,1.5001,1.4974,1.4944,1.4902,1.489,1.4843,1.4798,1.476,1.47,1.4681,1.4637,1.4628,1.4653,1.4649,1.4636,1.4638,1.4599,1.4592,1.4605,1.4605,1.4605,0,1.5216,1.5189,1.5132,1.5109,1.5082,1.5044,1.5017,1.4979,1.4952,1.4899,1.4878,1.4832,1.4793,1.4723,1.4683,1.4638,1.4628,1.4618,1.4621,1.4632,1.4628,1.4631,1.4628,1.4618,1.4618,1.4618,1.4618,0,1.5196,1.518,1.5142,1.5098,1.5066,1.503,1.4992,1.4974,1.4929,1.49,1.4855,1.4825,1.4765,1.472,1.467,1.4642,1.4622,1.4617,1.4611,1.4621,1.4637,1.4629,1.4653,1.4618,1.4618,1.4618,1.4618,1.4618,1.5188,1.5163,1.512,1.5078,1.5047,1.5012,1.4984,1.4952,1.4914,1.4863,1.4844,1.4798,1.4754,1.4686,1.4657,1.462,1.4617,1.4608,1.4606,1.4605,1.4607,1.4643,1.4611,1.4611,1.4611,1.4611,1.4611,0,1.5167,1.5138,1.5101,1.505,1.5017,1.5003,1.4961,1.4935,1.4895,1.4856,1.4819,1.4768,1.4724,1.4681,1.4635,1.4614,1.4604,1.4603,1.4604,1.4598,1.4612,1.4622,1.4612,1.4612,1.4612,1.4612,1.4612,1.4612,1.5152,1.511,1.5089,1.503,1.5001,1.4957,1.4934,1.4903,1.4871,1.4816,1.478,1.4753,1.4712,1.4663,1.4622,1.4611,1.4595,1.4597,1.4583,1.4597,1.4597,1.4597,1.4606,1.4593,1.4593,1.4572,1.4572,1.4571]}]]